| time (UTC) | temp F | wind direction | speed MPH | gust MPH | rain 1hr in | rain 24hr in | rain mn in | humidity % | barometer mb |
| 20260508162341 | 70 | 55 | 0.0 | 2.0 | 0.00 | 0.03 | 0.01 | 31 | 1014.5 |
| 20260508161842 | 70 | 55 | 1.0 | 3.0 | 0.00 | 0.03 | 0.01 | 29 | 1014.6 |
| 20260508161336 | 69 | 246 | 1.0 | 3.0 | 0.00 | 0.03 | 0.01 | 29 | 1014.6 |
| 20260508160841 | 69 | 69 | 1.0 | 2.0 | 0.00 | 0.03 | 0.01 | 29 | 1014.7 |
| 20260508160350 | 69 | 76 | 0.0 | 3.0 | 0.00 | 0.03 | 0.01 | 31 | 1014.7 |
| 20260508155832 | 69 | 53 | 1.0 | 3.0 | 0.00 | 0.03 | 0.01 | 33 | 1014.7 |
| 20260508155357 | 68 | 16 | 0.0 | 5.0 | 0.00 | 0.03 | 0.01 | 32 | 1014.8 |
| 20260508154857 | 68 | 11 | 1.0 | 5.0 | 0.00 | 0.03 | 0.01 | 32 | 1014.8 |
| 20260508154404 | 68 | 53 | 0.0 | 3.0 | 0.00 | 0.03 | 0.01 | 33 | 1014.7 |
| 20260508153902 | 68 | 49 | 1.0 | 2.0 | 0.00 | 0.03 | 0.01 | 35 | 1014.7 |
| 20260508153341 | 68 | 58 | 1.0 | 3.0 | 0.00 | 0.03 | 0.01 | 35 | 1014.8 |
| 20260508152832 | 68 | 57 | 1.0 | 3.0 | 0.00 | 0.03 | 0.01 | 32 | 1014.9 |
| 20260508152349 | 67 | 5 | 0.0 | 2.0 | 0.00 | 0.03 | 0.01 | 41 | 1015.0 |
| 20260508151859 | 67 | 11 | 0.0 | 2.0 | 0.00 | 0.03 | 0.01 | 37 | 1014.9 |
| 20260508151334 | 67 | 188 | 0.0 | 2.0 | 0.00 | 0.03 | 0.01 | 35 | 1014.9 |
| 20260508150848 | 66 | 162 | 0.0 | 3.0 | 0.00 | 0.03 | 0.01 | 38 | 1014.9 |
| 20260508150408 | 66 | 136 | 1.0 | 3.0 | 0.00 | 0.03 | 0.01 | 38 | 1015.0 |
| 20260508145845 | 67 | 66 | 0.0 | 2.0 | 0.00 | 0.03 | 0.01 | 39 | 1014.9 |
| 20260508145415 | 67 | 65 | 0.0 | 2.0 | 0.00 | 0.03 | 0.01 | 38 | 1014.8 |
| 20260508144858 | 66 | 360 | 0.0 | 1.0 | 0.00 | 0.03 | 0.01 | 43 | 1014.9 |
| 20260508144335 | 66 | 346 | 0.0 | 1.0 | 0.00 | 0.03 | 0.01 | 46 | 1014.9 |
| 20260508143829 | 65 | 355 | 0.0 | 1.0 | 0.00 | 0.03 | 0.01 | 44 | 1015.0 |
| 20260508143330 | 64 | 355 | 0.0 | 3.0 | 0.00 | 0.03 | 0.01 | 47 | 1015.0 |
| 20260508142833 | 64 | 303 | 0.0 | 4.0 | 0.00 | 0.03 | 0.01 | 45 | 1015.0 |
| 20260508142325 | 64 | 329 | 0.0 | 5.0 | 0.00 | 0.03 | 0.01 | 43 | 1015.0 |
| 20260508141858 | 64 | 298 | 1.0 | 2.0 | 0.00 | 0.03 | 0.01 | 47 | 1015.0 |
| 20260508141401 | 63 | 176 | 0.0 | 2.0 | 0.00 | 0.03 | 0.01 | 48 | 1014.9 |
| 20260508140905 | 63 | 176 | 1.0 | 2.0 | 0.00 | 0.03 | 0.01 | 46 | 1014.9 |
| 20260508140348 | 62 | 98 | 1.0 | 2.0 | 0.00 | 0.03 | 0.01 | 47 | 1014.9 |
| 20260508135833 | 62 | 15 | 0.0 | 3.0 | 0.00 | 0.04 | 0.01 | 49 | 1014.9 |
| 20260508135335 | 62 | 110 | 0.0 | 3.0 | 0.00 | 0.04 | 0.01 | 49 | 1014.9 |
| 20260508134836 | 61 | 342 | 1.0 | 2.0 | 0.00 | 0.04 | 0.01 | 54 | 1014.9 |
| 20260508134353 | 61 | 160 | 0.0 | 3.0 | 0.00 | 0.04 | 0.01 | 53 | 1014.9 |
| 20260508133854 | 60 | 80 | 0.0 | 3.0 | 0.00 | 0.04 | 0.01 | 56 | 1014.9 |
| 20260508133354 | 60 | 286 | 0.0 | 2.0 | 0.00 | 0.04 | 0.01 | 57 | 1014.9 |
| 20260508132908 | 59 | 259 | 0.0 | 3.0 | 0.00 | 0.04 | 0.01 | 58 | 1014.8 |
| 20260508132342 | 59 | 205 | 0.0 | 2.0 | 0.00 | 0.04 | 0.01 | 59 | 1014.8 |
| 20260508131919 | 58 | 267 | 1.0 | 2.0 | 0.00 | 0.04 | 0.01 | 62 | 1014.8 |
| 20260508131335 | 58 | 222 | 1.0 | 2.0 | 0.01 | 0.04 | 0.01 | 66 | 1014.7 |
| 20260508130840 | 57 | 253 | 1.0 | 2.0 | 0.01 | 0.04 | 0.01 | 68 | 1014.7 |
| 20260508130348 | 56 | 72 | 0.0 | 1.0 | 0.01 | 0.04 | 0.01 | 74 | 1014.6 |
| 20260508125828 | 56 | 72 | 0.0 | 1.0 | 0.01 | 0.06 | 0.01 | 76 | 1014.5 |
| 20260508125330 | 55 | 25 | 0.0 | 1.0 | 0.01 | 0.06 | 0.01 | 78 | 1014.5 |
| 20260508124832 | 54 | 25 | 0.0 | 2.0 | 0.01 | 0.06 | 0.01 | 81 | 1014.4 |
| 20260508124337 | 54 | 25 | 0.0 | 3.0 | 0.01 | 0.06 | 0.01 | 83 | 1014.4 |
| 20260508123828 | 53 | 85 | 1.0 | 3.0 | 0.01 | 0.06 | 0.01 | 86 | 1014.4 |
| 20260508123353 | 52 | 126 | 0.0 | 2.0 | 0.01 | 0.06 | 0.01 | 88 | 1014.3 |
| 20260508122906 | 52 | 126 | 0.0 | 2.0 | 0.01 | 0.06 | 0.01 | 90 | 1014.2 |
| 20260508122345 | 51 | 46 | 0.0 | 3.0 | 0.01 | 0.06 | 0.01 | 90 | 1014.2 |
| 20260508121857 | 51 | 32 | 1.0 | 3.0 | 0.01 | 0.06 | 0.01 | 90 | 1014.2 |
| 20260508121329 | 51 | 117 | 0.0 | 1.0 | 0.00 | 0.05 | 0.00 | 90 | 1014.1 |
| 20260508120844 | 50 | 94 | 0.0 | 2.0 | 0.00 | 0.05 | 0.00 | 90 | 1014.1 |
| 20260508120354 | 50 | 140 | 0.0 | 1.0 | 0.00 | 0.05 | 0.00 | 90 | 1014.1 |
| 20260508115912 | 50 | 140 | 0.0 | 1.0 | 0.00 | 0.11 | 0.00 | 90 | 1014.0 |
| 20260508115350 | 49 | 140 | 0.0 | 1.0 | 0.00 | 0.11 | 0.00 | 90 | 1013.9 |
| 20260508114909 | 49 | 140 | 0.0 | 1.0 | 0.00 | 0.11 | 0.00 | 90 | 1013.9 |
| 20260508114417 | 49 | 152 | 0.0 | 0.0 | 0.00 | 0.11 | 0.00 | 90 | 1013.8 |
| 20260508113832 | 48 | 152 | 0.0 | 0.0 | 0.00 | 0.11 | 0.00 | 90 | 1013.8 |
| 20260508113400 | 47 | 152 | 0.0 | 0.0 | 0.00 | 0.11 | 0.00 | 90 | 1013.8 |
| 20260508112835 | 47 | 152 | 0.0 | 0.0 | 0.00 | 0.11 | 0.00 | 90 | 1013.8 |
| 20260508112346 | 47 | 59 | 0.0 | 0.0 | 0.00 | 0.11 | 0.00 | 90 | 1013.7 |
| 20260508111833 | 46 | 59 | 0.0 | 0.0 | 0.00 | 0.11 | 0.00 | 90 | 1013.5 |
| 20260508111334 | 46 | 59 | 0.0 | 0.0 | 0.00 | 0.11 | 0.00 | 89 | 1013.4 |
| 20260508110829 | 46 | 59 | 0.0 | 0.0 | 0.00 | 0.11 | 0.00 | 90 | 1013.4 |
| 20260508110351 | 45 | 59 | 0.0 | 0.0 | 0.00 | 0.11 | 0.00 | 90 | 1013.3 |
| 20260508105828 | 45 | 59 | 0.0 | 0.0 | 0.00 | 0.15 | 0.00 | 89 | 1013.2 |
| 20260508105332 | 45 | 59 | 0.0 | 0.0 | 0.00 | 0.15 | 0.00 | 89 | 1013.0 |
| 20260508104839 | 45 | 59 | 0.0 | 0.0 | 0.00 | 0.15 | 0.00 | 89 | 1013.0 |
| 20260508104338 | 45 | 59 | 0.0 | 0.0 | 0.00 | 0.15 | 0.00 | 89 | 1013.0 |
| 20260508103833 | 45 | 59 | 0.0 | 0.0 | 0.00 | 0.15 | 0.00 | 89 | 1012.9 |
| 20260508103333 | 45 | 59 | 0.0 | 0.0 | 0.00 | 0.15 | 0.00 | 89 | 1012.7 |
| 20260508102829 | 45 | 59 | 0.0 | 0.0 | 0.00 | 0.15 | 0.00 | 89 | 1012.6 |
| 20260508102334 | 45 | 59 | 0.0 | 0.0 | 0.00 | 0.15 | 0.00 | 89 | 1012.6 |
| 20260508101913 | 45 | 59 | 0.0 | 0.0 | 0.00 | 0.15 | 0.00 | 89 | 1012.5 |
| 20260508101349 | 45 | 59 | 0.0 | 0.0 | 0.00 | 0.15 | 0.00 | 89 | 1012.4 |
| 20260508100857 | 45 | 59 | 0.0 | 0.0 | 0.00 | 0.15 | 0.00 | 89 | 1012.5 |
| 20260508100332 | 45 | 59 | 0.0 | 0.0 | 0.00 | 0.15 | 0.00 | 89 | 1012.4 |
| 20260508095828 | 46 | 59 | 0.0 | 0.0 | 0.00 | 0.19 | 0.00 | 89 | 1012.3 |
| 20260508095333 | 46 | 59 | 0.0 | 0.0 | 0.00 | 0.19 | 0.00 | 89 | 1012.2 |
| 20260508094838 | 46 | 59 | 0.0 | 0.0 | 0.00 | 0.19 | 0.00 | 89 | 1012.1 |
| 20260508094340 | 46 | 59 | 0.0 | 0.0 | 0.00 | 0.19 | 0.00 | 89 | 1012.1 |
| 20260508093858 | 46 | 59 | 0.0 | 0.0 | 0.00 | 0.19 | 0.00 | 89 | 1012.1 |
| 20260508093326 | 46 | 59 | 0.0 | 0.0 | 0.00 | 0.19 | 0.00 | 89 | 1012.0 |
| 20260508092828 | 46 | 59 | 0.0 | 0.0 | 0.00 | 0.19 | 0.00 | 89 | 1011.9 |
| 20260508092333 | 46 | 59 | 0.0 | 0.0 | 0.00 | 0.19 | 0.00 | 89 | 1011.8 |
| 20260508091851 | 46 | 59 | 0.0 | 0.0 | 0.00 | 0.19 | 0.00 | 89 | 1011.8 |
| 20260508091345 | 46 | 59 | 0.0 | 0.0 | 0.00 | 0.19 | 0.00 | 89 | 1011.7 |
| 20260508090836 | 46 | 59 | 0.0 | 0.0 | 0.00 | 0.19 | 0.00 | 89 | 1011.7 |
| 20260508090338 | 46 | 59 | 0.0 | 0.0 | 0.00 | 0.19 | 0.00 | 89 | 1011.7 |
| 20260508085836 | 46 | 59 | 0.0 | 0.0 | 0.00 | 0.22 | 0.00 | 89 | 1011.7 |
| 20260508085336 | 46 | 59 | 0.0 | 0.0 | 0.00 | 0.22 | 0.00 | 89 | 1011.7 |
| 20260508084845 | 46 | 59 | 0.0 | 0.0 | 0.00 | 0.22 | 0.00 | 89 | 1011.7 |
| 20260508084405 | 47 | 59 | 0.0 | 0.0 | 0.00 | 0.22 | 0.00 | 89 | 1011.7 |
| 20260508083901 | 47 | 59 | 0.0 | 1.0 | 0.00 | 0.22 | 0.00 | 89 | 1011.7 |
| 20260508083402 | 47 | 59 | 0.0 | 1.0 | 0.00 | 0.22 | 0.00 | 89 | 1011.5 |
| 20260508082828 | 47 | 59 | 0.0 | 0.0 | 0.00 | 0.22 | 0.00 | 89 | 1011.5 |
| 20260508082342 | 47 | 59 | 0.0 | 0.0 | 0.00 | 0.22 | 0.00 | 89 | 1011.4 |
| 20260508081839 | 47 | 59 | 0.0 | 0.0 | 0.00 | 0.22 | 0.00 | 89 | 1011.3 |
| 20260508081339 | 47 | 59 | 0.0 | 0.0 | 0.00 | 0.22 | 0.00 | 89 | 1011.3 |
| 20260508080907 | 47 | 59 | 0.0 | 0.0 | 0.00 | 0.22 | 0.00 | 89 | 1011.2 |
| 20260508080347 | 47 | 59 | 0.0 | 0.0 | 0.00 | 0.22 | 0.00 | 89 | 1011.1 |
| 20260508075841 | 47 | 59 | 0.0 | 0.0 | 0.00 | 0.22 | 0.00 | 89 | 1011.0 |
| 20260508075327 | 47 | 59 | 0.0 | 0.0 | 0.00 | 0.22 | 0.00 | 89 | 1011.1 |
| 20260508074829 | 47 | 59 | 0.0 | 0.0 | 0.00 | 0.22 | 0.00 | 89 | 1011.0 |
| 20260508074333 | 47 | 59 | 0.0 | 0.0 | 0.00 | 0.22 | 0.00 | 89 | 1011.0 |
| 20260508073858 | 47 | 59 | 0.0 | 0.0 | 0.00 | 0.22 | 0.00 | 89 | 1010.9 |
| 20260508073400 | 47 | 59 | 0.0 | 0.0 | 0.00 | 0.22 | 0.00 | 89 | 1010.9 |
| 20260508072853 | 46 | 59 | 0.0 | 0.0 | 0.00 | 0.22 | 0.00 | 89 | 1011.0 |
| 20260508072336 | 46 | 59 | 0.0 | 0.0 | 0.00 | 0.22 | 0.00 | 89 | 1011.0 |
| 20260508071838 | 46 | 59 | 0.0 | 0.0 | 0.00 | 0.22 | 0.00 | 89 | 1011.0 |
| 20260508071329 | 46 | 59 | 0.0 | 0.0 | 0.00 | 0.22 | 0.00 | 89 | 1010.9 |
| 20260508070840 | 46 | 59 | 0.0 | 0.0 | 0.00 | 0.22 | 0.00 | 89 | 1010.9 |
| 20260508070341 | 46 | 59 | 0.0 | 0.0 | 0.00 | 0.22 | 0.00 | 89 | 1010.9 |
| 20260508065844 | 46 | 59 | 0.0 | 0.0 | 0.00 | 0.23 | 0.00 | 89 | 1010.9 |
| 20260508065339 | 46 | 59 | 0.0 | 0.0 | 0.00 | 0.23 | 0.00 | 89 | 1011.0 |
| 20260508064837 | 47 | 59 | 0.0 | 0.0 | 0.00 | 0.23 | 0.00 | 88 | 1010.8 |
| 20260508064339 | 47 | 59 | 0.0 | 0.0 | 0.00 | 0.23 | 0.00 | 89 | 1010.8 |
| 20260508063835 | 47 | 59 | 0.0 | 0.0 | 0.00 | 0.23 | 0.00 | 89 | 1010.7 |
| 20260508063325 | 47 | 59 | 0.0 | 0.0 | 0.00 | 0.23 | 0.00 | 89 | 1010.7 |
| 20260508062917 | 47 | 59 | 0.0 | 0.0 | 0.00 | 0.23 | 0.00 | 89 | 1010.7 |
| 20260508062338 | 47 | 59 | 0.0 | 0.0 | 0.00 | 0.23 | 0.00 | 89 | 1010.6 |
| 20260508061835 | 47 | 59 | 0.0 | 0.0 | 0.00 | 0.23 | 0.00 | 89 | 1010.5 |
| 20260508061337 | 47 | 59 | 0.0 | 0.0 | 0.00 | 0.23 | 0.00 | 89 | 1010.5 |
| 20260508060843 | 47 | 59 | 0.0 | 0.0 | 0.00 | 0.23 | 0.00 | 89 | 1010.5 |
| 20260508060340 | 47 | 59 | 0.0 | 0.0 | 0.00 | 0.23 | 0.00 | 89 | 1010.3 |
| 20260508055826 | 47 | 59 | 0.0 | 0.0 | 0.00 | 0.24 | 0.00 | 88 | 1010.3 |
| 20260508055342 | 47 | 59 | 0.0 | 0.0 | 0.00 | 0.24 | 0.00 | 88 | 1010.2 |
| 20260508054858 | 47 | 59 | 0.0 | 0.0 | 0.00 | 0.24 | 0.00 | 88 | 1010.3 |
| 20260508054332 | 47 | 59 | 0.0 | 0.0 | 0.00 | 0.24 | 0.00 | 88 | 1010.3 |
| 20260508053907 | 47 | 59 | 0.0 | 0.0 | 0.00 | 0.24 | 0.00 | 88 | 1010.4 |
| 20260508053349 | 47 | 59 | 0.0 | 0.0 | 0.00 | 0.24 | 0.00 | 88 | 1010.4 |
| 20260508052849 | 48 | 59 | 0.0 | 0.0 | 0.00 | 0.24 | 0.00 | 88 | 1010.3 |
| 20260508052333 | 48 | 59 | 0.0 | 0.0 | 0.00 | 0.24 | 0.00 | 88 | 1010.3 |
| 20260508051836 | 48 | 59 | 0.0 | 0.0 | 0.00 | 0.24 | 0.00 | 88 | 1010.2 |
| 20260508051335 | 48 | 59 | 0.0 | 0.0 | 0.00 | 0.24 | 0.00 | 88 | 1010.4 |
| 20260508050841 | 48 | 59 | 0.0 | 0.0 | 0.00 | 0.24 | 0.00 | 88 | 1010.3 |
| 20260508050345 | 49 | 59 | 0.0 | 0.0 | 0.00 | 0.24 | 0.00 | 88 | 1010.2 |
| 20260508045835 | 49 | 59 | 0.0 | 0.0 | 0.00 | 0.24 | 0.00 | 88 | 1010.3 |
| 20260508045334 | 49 | 59 | 0.0 | 0.0 | 0.00 | 0.24 | 0.00 | 88 | 1010.2 |
| 20260508044839 | 49 | 59 | 0.0 | 0.0 | 0.00 | 0.24 | 0.00 | 88 | 1010.2 |
| 20260508044349 | 49 | 59 | 0.0 | 0.0 | 0.00 | 0.24 | 0.00 | 88 | 1010.2 |
| 20260508043852 | 48 | 59 | 0.0 | 0.0 | 0.00 | 0.24 | 0.00 | 88 | 1010.1 |
| 20260508043400 | 48 | 59 | 0.0 | 0.0 | 0.00 | 0.24 | 0.00 | 88 | 1010.2 |
| 20260508042857 | 48 | 59 | 0.0 | 0.0 | 0.00 | 0.24 | 0.00 | 88 | 1010.3 |
| 20260508042331 | 48 | 59 | 0.0 | 0.0 | 0.00 | 0.24 | 0.00 | 88 | 1010.4 |
| 20260508041847 | 48 | 59 | 0.0 | 0.0 | 0.00 | 0.24 | 0.00 | 88 | 1010.2 |
| 20260508041353 | 48 | 59 | 0.0 | 0.0 | 0.00 | 0.24 | 0.00 | 88 | 1010.0 |
| 20260508040838 | 48 | 59 | 0.0 | 0.0 | 0.00 | 0.24 | 0.00 | 87 | 1010.1 |
| 20260508040343 | 48 | 59 | 0.0 | 0.0 | 0.00 | 0.24 | 0.00 | 88 | 1009.9 |
| 20260508035833 | 49 | 59 | 0.0 | 0.0 | 0.00 | 0.24 | 0.24 | 88 | 1009.8 |
| 20260508035333 | 49 | 59 | 0.0 | 0.0 | 0.00 | 0.24 | 0.24 | 87 | 1009.8 |
| 20260508034838 | 49 | 59 | 0.0 | 0.0 | 0.00 | 0.24 | 0.24 | 87 | 1009.8 |
| 20260508034332 | 49 | 59 | 0.0 | 0.0 | 0.00 | 0.24 | 0.24 | 87 | 1009.7 |
| 20260508033828 | 49 | 59 | 0.0 | 0.0 | 0.00 | 0.24 | 0.24 | 87 | 1009.6 |
| 20260508033344 | 49 | 59 | 0.0 | 0.0 | 0.00 | 0.24 | 0.24 | 87 | 1009.6 |
| 20260508032857 | 49 | 59 | 0.0 | 0.0 | 0.00 | 0.24 | 0.24 | 87 | 1009.6 |
| 20260508032348 | 50 | 59 | 0.0 | 0.0 | 0.00 | 0.24 | 0.24 | 87 | 1009.7 |
| 20260508031844 | 50 | 59 | 0.0 | 0.0 | 0.00 | 0.24 | 0.24 | 87 | 1009.7 |
| 20260508031341 | 50 | 59 | 0.0 | 0.0 | 0.00 | 0.24 | 0.24 | 87 | 1009.7 |
| 20260508030846 | 50 | 59 | 0.0 | 0.0 | 0.00 | 0.24 | 0.24 | 87 | 1009.7 |
| 20260508030328 | 50 | 59 | 0.0 | 0.0 | 0.00 | 0.24 | 0.24 | 87 | 1009.7 |
| 20260508025835 | 51 | 59 | 0.0 | 0.0 | 0.00 | 0.24 | 0.24 | 87 | 1009.6 |
| 20260508025333 | 51 | 59 | 0.0 | 0.0 | 0.00 | 0.24 | 0.24 | 87 | 1009.5 |
| 20260508024832 | 51 | 59 | 0.0 | 0.0 | 0.00 | 0.24 | 0.24 | 87 | 1009.5 |
| 20260508024333 | 51 | 59 | 0.0 | 0.0 | 0.00 | 0.24 | 0.24 | 87 | 1009.5 |
| 20260508023834 | 51 | 59 | 0.0 | 0.0 | 0.00 | 0.24 | 0.24 | 87 | 1009.4 |
| 20260508023359 | 52 | 59 | 0.0 | 0.0 | 0.00 | 0.24 | 0.24 | 87 | 1009.2 |
| 20260508022839 | 52 | 59 | 0.0 | 0.0 | 0.00 | 0.24 | 0.24 | 87 | 1009.2 |
| 20260508022337 | 52 | 59 | 0.0 | 0.0 | 0.00 | 0.24 | 0.24 | 87 | 1009.4 |
| 20260508021844 | 52 | 59 | 0.0 | 0.0 | 0.00 | 0.24 | 0.24 | 87 | 1009.5 |
| 20260508021344 | 52 | 59 | 0.0 | 0.0 | 0.00 | 0.24 | 0.24 | 88 | 1009.6 |
| 20260508020848 | 52 | 59 | 0.0 | 0.0 | 0.00 | 0.24 | 0.24 | 88 | 1009.5 |
| 20260508020407 | 52 | 59 | 0.0 | 0.0 | 0.00 | 0.24 | 0.24 | 87 | 1009.2 |
| 20260508015840 | 52 | 59 | 0.0 | 0.0 | 0.00 | 0.24 | 0.24 | 87 | 1009.4 |
| 20260508015343 | 52 | 59 | 0.0 | 0.0 | 0.00 | 0.24 | 0.24 | 87 | 1009.5 |
| 20260508014843 | 53 | 59 | 0.0 | 1.0 | 0.00 | 0.24 | 0.24 | 87 | 1009.3 |
| 20260508014346 | 53 | 59 | 0.0 | 3.0 | 0.00 | 0.24 | 0.24 | 87 | 1009.3 |
| 20260508013846 | 53 | 44 | 0.0 | 0.0 | 0.00 | 0.24 | 0.24 | 87 | 1009.3 |
| 20260508013420 | 53 | 44 | 0.0 | 0.0 | 0.00 | 0.24 | 0.24 | 87 | 1009.2 |
| 20260508012857 | 53 | 44 | 0.0 | 0.0 | 0.00 | 0.24 | 0.24 | 87 | 1009.2 |
| 20260508012324 | 53 | 44 | 0.0 | 1.0 | 0.00 | 0.24 | 0.24 | 87 | 1009.2 |
| 20260508011840 | 53 | 44 | 0.0 | 1.0 | 0.00 | 0.24 | 0.24 | 87 | 1009.2 |
| 20260508011357 | 53 | 44 | 0.0 | 0.0 | 0.00 | 0.24 | 0.24 | 87 | 1009.0 |
| 20260508010839 | 53 | 44 | 0.0 | 0.0 | 0.00 | 0.24 | 0.24 | 86 | 1009.0 |
| 20260508010340 | 53 | 44 | 0.0 | 0.0 | 0.00 | 0.24 | 0.24 | 86 | 1009.0 |
| 20260508005835 | 53 | 44 | 0.0 | 0.0 | 0.00 | 0.24 | 0.24 | 86 | 1008.9 |
| 20260508005356 | 54 | 44 | 0.0 | 0.0 | 0.00 | 0.24 | 0.24 | 86 | 1008.8 |
| 20260508004825 | 54 | 44 | 0.0 | 0.0 | 0.00 | 0.24 | 0.24 | 86 | 1008.7 |
| 20260508004338 | 54 | 44 | 0.0 | 0.0 | 0.00 | 0.24 | 0.24 | 86 | 1008.6 |
| 20260508003849 | 54 | 44 | 0.0 | 0.0 | 0.00 | 0.24 | 0.24 | 86 | 1008.4 |
| 20260508003358 | 54 | 44 | 0.0 | 0.0 | 0.00 | 0.24 | 0.24 | 86 | 1008.5 |
| 20260508002835 | 54 | 44 | 0.0 | 0.0 | 0.00 | 0.24 | 0.24 | 86 | 1008.5 |
| 20260508002354 | 54 | 44 | 0.0 | 0.0 | 0.00 | 0.24 | 0.24 | 86 | 1008.4 |
| 20260508001855 | 54 | 44 | 0.0 | 0.0 | 0.00 | 0.24 | 0.24 | 86 | 1008.4 |
| 20260508001359 | 54 | 44 | 0.0 | 0.0 | 0.01 | 0.24 | 0.24 | 85 | 1008.2 |
| 20260508000842 | 54 | 44 | 0.0 | 0.0 | 0.01 | 0.24 | 0.24 | 86 | 1008.1 |
| 20260508000400 | 54 | 44 | 0.0 | 0.0 | 0.01 | 0.24 | 0.24 | 85 | 1008.2 |
| 20260507235845 | 54 | 44 | 0.0 | 0.0 | 0.01 | 0.24 | 0.24 | 85 | 1008.1 |
| 20260507235327 | 54 | 44 | 0.0 | 0.0 | 0.01 | 0.24 | 0.24 | 85 | 1008.1 |
| 20260507234848 | 54 | 44 | 0.0 | 0.0 | 0.01 | 0.24 | 0.24 | 84 | 1007.9 |
| 20260507234345 | 54 | 44 | 0.0 | 0.0 | 0.01 | 0.24 | 0.24 | 84 | 1008.0 |
| 20260507233831 | 55 | 44 | 0.0 | 0.0 | 0.01 | 0.24 | 0.24 | 83 | 1007.8 |
| 20260507233338 | 55 | 44 | 0.0 | 0.0 | 0.01 | 0.24 | 0.24 | 84 | 1007.7 |
| 20260507232845 | 55 | 44 | 0.0 | 0.0 | 0.01 | 0.24 | 0.24 | 84 | 1007.8 |
| 20260507232328 | 55 | 44 | 0.0 | 0.0 | 0.01 | 0.24 | 0.24 | 83 | 1007.8 |
| 20260507231837 | 55 | 44 | 0.0 | 0.0 | 0.01 | 0.24 | 0.24 | 83 | 1007.8 |
| 20260507231343 | 55 | 44 | 0.0 | 0.0 | 0.00 | 0.23 | 0.23 | 83 | 1007.7 |
| 20260507230855 | 55 | 44 | 0.0 | 0.0 | 0.00 | 0.23 | 0.23 | 83 | 1007.8 |
| 20260507230338 | 55 | 44 | 0.0 | 0.0 | 0.00 | 0.23 | 0.23 | 82 | 1007.9 |
| 20260507225855 | 55 | 44 | 0.0 | 1.0 | 0.00 | 0.23 | 0.23 | 82 | 1007.8 |
| 20260507225409 | 55 | 44 | 0.0 | 1.0 | 0.00 | 0.23 | 0.23 | 81 | 1007.8 |
| 20260507224855 | 55 | 44 | 0.0 | 2.0 | 0.00 | 0.23 | 0.23 | 81 | 1007.6 |
| 20260507224336 | 55 | 44 | 0.0 | 1.0 | 0.00 | 0.23 | 0.23 | 81 | 1007.8 |
| 20260507223838 | 55 | 44 | 0.0 | 1.0 | 0.00 | 0.23 | 0.23 | 80 | 1007.7 |
| 20260507223340 | 55 | 44 | 0.0 | 1.0 | 0.00 | 0.23 | 0.23 | 78 | 1007.7 |
| 20260507222910 | 56 | 44 | 0.0 | 1.0 | 0.00 | 0.23 | 0.23 | 79 | 1007.7 |
| 20260507222348 | 56 | 44 | 0.0 | 1.0 | 0.00 | 0.23 | 0.23 | 79 | 1007.8 |
| 20260507221853 | 56 | 44 | 0.0 | 2.0 | 0.00 | 0.23 | 0.23 | 78 | 1007.8 |
| 20260507221331 | 56 | 44 | 0.0 | 1.0 | 0.00 | 0.23 | 0.23 | 81 | 1007.4 |
| 20260507220834 | 56 | 44 | 0.0 | 1.0 | 0.00 | 0.23 | 0.23 | 81 | 1007.3 |
| 20260507220351 | 56 | 44 | 0.0 | 1.0 | 0.00 | 0.23 | 0.23 | 81 | 1007.4 |
| 20260507215830 | 56 | 44 | 0.0 | 1.0 | 0.00 | 0.23 | 0.23 | 82 | 1007.5 |
| 20260507215343 | 55 | 44 | 0.0 | 0.0 | 0.00 | 0.23 | 0.23 | 82 | 1007.6 |
| 20260507214840 | 55 | 44 | 0.0 | 0.0 | 0.00 | 0.23 | 0.23 | 81 | 1008.0 |
| 20260507214413 | 55 | 44 | 0.0 | 1.0 | 0.00 | 0.23 | 0.23 | 80 | 1008.2 |
| 20260507213829 | 56 | 44 | 0.0 | 1.0 | 0.00 | 0.23 | 0.23 | 78 | 1008.3 |
| 20260507213355 | 56 | 44 | 0.0 | 1.0 | 0.00 | 0.23 | 0.23 | 78 | 1008.0 |
| 20260507212832 | 56 | 44 | 0.0 | 2.0 | 0.00 | 0.23 | 0.23 | 78 | 1007.8 |
| 20260507212334 | 56 | 44 | 0.0 | 2.0 | 0.00 | 0.23 | 0.23 | 79 | 1007.9 |
| 20260507211833 | 56 | 5 | 0.0 | 1.0 | 0.00 | 0.23 | 0.23 | 81 | 1008.0 |
| 20260507211355 | 56 | 5 | 0.0 | 1.0 | 0.00 | 0.23 | 0.23 | 81 | 1008.2 |
| 20260507210854 | 56 | 360 | 0.0 | 1.0 | 0.00 | 0.23 | 0.23 | 80 | 1008.2 |
| 20260507210330 | 56 | 5 | 0.0 | 2.0 | 0.00 | 0.23 | 0.23 | 80 | 1008.0 |
| 20260507205848 | 56 | 311 | 0.0 | 2.0 | 0.00 | 0.24 | 0.23 | 80 | 1008.2 |
| 20260507205341 | 56 | 311 | 0.0 | 1.0 | 0.00 | 0.24 | 0.23 | 81 | 1008.2 |
| 20260507204842 | 56 | 311 | 0.0 | 2.0 | 0.00 | 0.24 | 0.23 | 79 | 1008.1 |
| 20260507204356 | 56 | 310 | 0.0 | 2.0 | 0.00 | 0.24 | 0.23 | 79 | 1008.1 |
| 20260507203859 | 57 | 311 | 0.0 | 1.0 | 0.00 | 0.24 | 0.23 | 78 | 1008.0 |
| 20260507203343 | 57 | 310 | 0.0 | 2.0 | 0.00 | 0.24 | 0.23 | 77 | 1007.9 |
| 20260507202840 | 57 | 309 | 1.0 | 3.0 | 0.00 | 0.24 | 0.23 | 78 | 1008.0 |
| 20260507202406 | 57 | 288 | 1.0 | 3.0 | 0.00 | 0.24 | 0.23 | 77 | 1007.7 |
| 20260507201843 | 57 | 130 | 0.0 | 1.0 | 0.00 | 0.24 | 0.23 | 80 | 1007.8 |
| 20260507201339 | 57 | 130 | 0.0 | 1.0 | 0.00 | 0.24 | 0.23 | 79 | 1007.7 |
| 20260507200840 | 56 | 130 | 0.0 | 1.0 | 0.00 | 0.24 | 0.23 | 78 | 1007.8 |
| 20260507200326 | 56 | 130 | 0.0 | 1.0 | 0.00 | 0.24 | 0.23 | 79 | 1008.0 |
| 20260507195831 | 57 | 130 | 0.0 | 1.0 | 0.00 | 0.24 | 0.23 | 77 | 1008.1 |
| 20260507195344 | 57 | 133 | 0.0 | 1.0 | 0.00 | 0.24 | 0.23 | 77 | 1007.9 |
| 20260507194843 | 57 | 134 | 1.0 | 1.0 | 0.00 | 0.24 | 0.23 | 76 | 1007.9 |
| 20260507194403 | 57 | 134 | 0.0 | 1.0 | 0.00 | 0.24 | 0.23 | 78 | 1007.8 |
| 20260507193840 | 57 | 134 | 0.0 | 2.0 | 0.00 | 0.24 | 0.23 | 79 | 1007.6 |
| 20260507193342 | 57 | 133 | 0.0 | 2.0 | 0.00 | 0.24 | 0.23 | 80 | 1007.8 |
| 20260507192832 | 57 | 134 | 0.0 | 3.0 | 0.00 | 0.24 | 0.23 | 79 | 1007.9 |
| 20260507192334 | 57 | 134 | 0.0 | 3.0 | 0.00 | 0.24 | 0.23 | 79 | 1007.9 |
| 20260507191835 | 57 | 117 | 0.0 | 2.0 | 0.00 | 0.24 | 0.23 | 80 | 1007.9 |
| 20260507191339 | 57 | 76 | 0.0 | 2.0 | 0.00 | 0.24 | 0.23 | 81 | 1007.7 |
| 20260507190835 | 56 | 76 | 0.0 | 2.0 | 0.00 | 0.24 | 0.23 | 82 | 1007.8 |
| 20260507190358 | 56 | 76 | 0.0 | 2.0 | 0.00 | 0.24 | 0.23 | 81 | 1008.0 |
| 20260507185829 | 56 | 161 | 0.0 | 1.0 | 0.00 | 0.24 | 0.23 | 82 | 1007.9 |
| 20260507185343 | 56 | 161 | 0.0 | 1.0 | 0.00 | 0.24 | 0.23 | 81 | 1008.1 |
| 20260507184908 | 56 | 161 | 0.0 | 2.0 | 0.00 | 0.24 | 0.23 | 81 | 1008.2 |
| 20260507184327 | 56 | 161 | 0.0 | 2.0 | 0.00 | 0.24 | 0.23 | 79 | 1008.0 |
| 20260507183838 | 56 | 96 | 0.0 | 2.0 | 0.00 | 0.24 | 0.23 | 80 | 1008.1 |
| 20260507183339 | 56 | 119 | 0.0 | 1.0 | 0.00 | 0.24 | 0.23 | 81 | 1008.1 |
| 20260507182840 | 56 | 171 | 0.0 | 1.0 | 0.00 | 0.24 | 0.23 | 81 | 1008.1 |
| 20260507182328 | 56 | 171 | 0.0 | 1.0 | 0.00 | 0.24 | 0.23 | 82 | 1008.1 |
| 20260507181831 | 55 | 171 | 0.0 | 1.0 | 0.00 | 0.24 | 0.23 | 81 | 1008.1 |
| 20260507181327 | 55 | 171 | 0.0 | 4.0 | 0.00 | 0.24 | 0.23 | 81 | 1008.1 |
| 20260507180832 | 55 | 171 | 1.0 | 4.0 | 0.00 | 0.24 | 0.23 | 81 | 1008.2 |
| 20260507180340 | 55 | 56 | 0.0 | 2.0 | 0.00 | 0.24 | 0.23 | 81 | 1008.4 |
| 20260507175842 | 55 | 56 | 0.0 | 1.0 | 0.00 | 0.24 | 0.23 | 81 | 1008.2 |
| 20260507175338 | 55 | 56 | 0.0 | 1.0 | 0.00 | 0.24 | 0.23 | 81 | 1008.4 |
| 20260507174848 | 55 | 55 | 0.0 | 1.0 | 0.00 | 0.24 | 0.23 | 81 | 1008.5 |
| 20260507174335 | 55 | 55 | 0.0 | 1.0 | 0.00 | 0.24 | 0.23 | 80 | 1008.8 |
| 20260507173831 | 55 | 55 | 0.0 | 3.0 | 0.00 | 0.24 | 0.23 | 79 | 1008.9 |
| 20260507173337 | 56 | 32 | 0.0 | 2.0 | 0.00 | 0.24 | 0.23 | 80 | 1008.5 |
| 20260507172841 | 56 | 32 | 1.0 | 2.0 | 0.00 | 0.24 | 0.23 | 79 | 1008.6 |
| 20260507172349 | 56 | 228 | 0.0 | 2.0 | 0.00 | 0.24 | 0.23 | 80 | 1008.4 |
| 20260507171851 | 56 | 74 | 0.0 | 2.0 | 0.00 | 0.24 | 0.23 | 80 | 1008.9 |
| 20260507171354 | 56 | 74 | 0.0 | 2.0 | 0.00 | 0.24 | 0.23 | 80 | 1009.2 |
| 20260507170835 | 56 | 103 | 0.0 | 2.0 | 0.01 | 0.24 | 0.23 | 82 | 1009.5 |
| 20260507170339 | 56 | 95 | 0.0 | 2.0 | 0.01 | 0.24 | 0.23 | 86 | 1009.2 |
| 20260507165839 | 56 | 95 | 0.0 | 0.0 | 0.01 | 0.24 | 0.23 | 85 | 1009.4 |
| 20260507165334 | 56 | 96 | 0.0 | 1.0 | 0.01 | 0.24 | 0.23 | 84 | 1009.2 |
| 20260507164836 | 56 | 96 | 0.0 | 1.0 | 0.01 | 0.24 | 0.23 | 84 | 1009.3 |
| 20260507164407 | 56 | 96 | 0.0 | 1.0 | 0.01 | 0.24 | 0.23 | 84 | 1009.2 |
| 20260507163900 | 56 | 84 | 0.0 | 1.0 | 0.01 | 0.24 | 0.23 | 85 | 1009.0 |
| 20260507163342 | 56 | 84 | 0.0 | 1.0 | 0.01 | 0.24 | 0.23 | 85 | 1009.1 |
| 20260507162831 | 55 | 84 | 0.0 | 1.0 | 0.01 | 0.24 | 0.23 | 84 | 1009.2 |